This is the latest recevied weather packets stored in our database for station/object JL1CBB-13. If no packets are shown the sender has not sent any weather packets the latest 1 day(s).
| Time | Temp. | Humidity | Pressure | Rain* | Wind** | Luminosity | Snow |
|---|---|---|---|---|---|---|---|
| 1778036515 | 23.33° C | 62% | 1022 hPa | 0 mm | 2.24 m/s, 191° | - | - |
| 1778035914 | 23.33° C | 62% | 1022 hPa | 0 mm | 2.68 m/s, 159° | - | - |
| 1778035314 | 23.33° C | 63% | 1023 hPa | 0 mm | 1.34 m/s, 186° | - | - |
| 1778034714 | 22.78° C | 63% | 1023 hPa | 0 mm | 2.24 m/s, 193° | - | - |
| 1778034114 | 22.78° C | 63% | 1023 hPa | 0 mm | 1.34 m/s, 193° | - | - |
| 1778033514 | 23.33° C | 63% | 1024 hPa | 0 mm | 2.68 m/s, 179° | - | - |
| 1778032914 | 23.33° C | 63% | 1024 hPa | 0 mm | 1.34 m/s, 241° | - | - |
| 1778032315 | 22.78° C | 64% | 1024 hPa | 0 mm | 1.34 m/s, 175° | - | - |
| 1778031716 | 23.33° C | 64% | 1025 hPa | 0 mm | 1.34 m/s, 200° | - | - |
| 1778031115 | 23.33° C | 65% | 1025 hPa | 0 mm | 1.34 m/s, 172° | - | - |
| 1778030515 | 22.22° C | 66% | 1025 hPa | 0 mm | 0.89 m/s, 178° | - | - |
| 1778029915 | 21.67° C | 67% | 1025 hPa | 0 mm | 1.34 m/s, 200° | - | - |
| 1778029315 | 22.22° C | 65% | 1025 hPa | 0 mm | 0.45 m/s, 219° | - | - |
| 1778028715 | 23.33° C | 65% | 1024 hPa | 0 mm | 0.89 m/s, 199° | - | - |
| 1778028115 | 23.33° C | 66% | 1025 hPa | 0 mm | 0.45 m/s, 199° | - | - |
| 1778027515 | 22.78° C | 67% | 1025 hPa | 0 mm | 0 m/s | - | - |
| 1778026915 | 21.11° C | 69% | 1025 hPa | 0 mm | 0 m/s | - | - |
| 1778026315 | 20.56° C | 69% | 1026 hPa | 0 mm | 0 m/s | - | - |
| 1778025715 | 20.56° C | 72% | 1026 hPa | 0 mm | 0.45 m/s, 21° | - | - |
| 1778025115 | 20.56° C | 73% | 1025 hPa | 0 mm | 0.89 m/s, 137° | - | - |
| 1778024515 | 20° C | 73% | 1025 hPa | 0 mm | 0.45 m/s, 223° | - | - |
| 1778023915 | 20° C | 73% | 1025 hPa | 0 mm | 0.45 m/s, 130° | - | - |
| 1778023314 | 20° C | 75% | 1025 hPa | 0 mm | 0.45 m/s, 202° | - | - |
| 1778022714 | 20° C | 75% | 1025 hPa | 0 mm | 0 m/s | - | - |
| 1778022114 | 19.44° C | 75% | 1025 hPa | 0 mm | 0.45 m/s, 204° | - | - |
* Rain latest hour (hover to see other rain measurements)
** Current wind speed in m/s (hover to see current wind gust speed)